Racecast

2022 NIAA State XC Championships

Veterans Memorial Park · 5000m · Girls · Compiled · NV

250 runners from 4 divisions

These divisions were run separately. This is how their times compare, not how they finished — the places and scores below were never contested.

View full meet →

Team scores

Place Team Points 12345 67
1 Carson (NV) 58 4 10 13 15 16 47 90
2 Galena (NV) 88 1 2 12 21 52 83 86
3 Coronado (NV) (NV) 160 23 24 25 38 50 74 79
4 Palo Verde (NV) 168 6 26 34 40 62 102 103
5 Somerset Academy Sky Pointe (NV) 191 17 27 29 49 69 115 122
6 Reno (NV) 196 3 5 41 72 75 85 93
7 North Tahoe (NV) 229 18 19 35 70 87 94 117
8 Elko (NV) 235 14 30 33 78 80 84 129
9 Centennial (NV) (NV) 237 20 42 43 65 67 88 89
10 Shadow Ridge (NV) (NV) 239 9 37 48 54 91 119 136
11 Spring Creek (NV) 246 8 45 63 64 66 77 82
12 Bishop Gorman (NV) 254 22 39 55 57 81 95 100
13 Spanish Springs (NV) 321 44 53 60 68 96 98
14 South Tahoe (NV) 327 11 51 56 101 108 113 160
15 Tahoe-Truckee (CA) 409 31 32 61 138 147 166
16 Desert Oasis (NV) 424 36 73 99 107 109 131 142
17 Incline (NV) 456 28 58 105 121 144
18 Clark (NV) 484 59 76 104 118 127 140 158
19 Liberty(NV) (NV) 502 46 106 112 114 124 135 141
20 Virgin Valley (NV) 592 7 126 130 164 165
21 Silverado (NV) (NV) 648 92 116 132 149 159
22 Moapa Valley (NV) 655 71 111 137 163 173
23 Rancho (NV) 661 97 134 139 145 146 148 154
24 Durango (NV) 729 120 133 153 156 167 168
25 Laughlin (NV) 731 110 125 155 169 172 174
26 Las Vegas (NV) 747 123 150 151 161 162 171
27 Valley (NV) 750 128 143 152 157 170 175 176

Not scored, fewer than five finishers: Bishop Manogue (4), Fernley (4), Coral Academy of Science (Reno) (4), Sierra Lutheran (4), Canyon Springs (4), Needles (4), Bishop Manogue (3), Arbor View (3), Douglas (3), West Wendover (3), Foothill (2), Reed (2), North Valleys (2), Pahrump Valley (2), Virginia City (2), Pinecrest Academy Cadence (2), Legacy (2), Basic (2), Spring Valley (2), Eldorado (2), Bonanza (2), Cheyenne (2), Damonte Ranch (1), Green Valley (1), McQueen (1), Faith Lutheran (1), Sierra Vista(NV) (1), Dayton (1), Doral Red Rock (1), Incline (1), Mojave (1), Green Valley Christian (1), Lake Mead Christian (1), The Meadows (1), Del Sol (1), Adelson (1)

Results

Place Athlete Grade School Time Rating Points Actual race
1 Eleanor Raker 10 Galena (NV) 1 18:26.7 141.5 1 1
2 Amaya Aramini 11 Bishop Manogue (NV) 1 18:35.9 140.3 2
3 Ava Luczkow 11 Bishop Manogue (NV) 1 19:00.8 137.2 3
4 Alyssa Bronander 12 Galena (NV) 2 19:19.8 134.9 2 4
5 Soleil Fullmer 12 Foothill (NV) 1 19:28.4 133.9 5
6 Thalia Arrate 12 Reno (NV) 1 19:29.7 133.7 3 6
7 Hannah Budd 9 Carson (NV) 1 19:42.6 132.2 4 8
8 McKenna Palmer 9 Reno (NV) 2 19:48.3 131.6 5 9
9 Liliana Devora 10 Palo Verde (NV) 1 19:54.3 130.9 6 10
10 Jenna Walters 11 Virgin Valley (NV) 1 19:58.3 130.5 7 1
11 Kiely Munson 12 Spring Creek (NV) 1 20:02.1 130.1 8 2
12 Elynn Okuda 9 Shadow Ridge (NV) (NV) 1 20:02.3 130.0 9 11
13 Vea Miner 9 Carson (NV) 2 20:02.5 130.0 10 12
14 Lyla Landy 9 South Tahoe (NV) 1 20:03.4 129.9 11 3
15 Raija Burst 10 Galena (NV) 3 20:04.4 129.8 12 13
16 Jinnie Ponczoch 10 Carson (NV) 3 20:07.8 129.4 13 14
17 Reese Hatch 11 Elko (NV) 1 20:10.8 129.1 14 4
18 Samantha Tolotti 9 Bishop Manogue (NV) 2 20:14.6 128.7 15
19 Brianna Rodriguez-Nunez 9 Carson (NV) 4 20:17.5 128.4 15 16
20 Madison Hager 9 Carson (NV) 5 20:20.0 128.1 16 17
21 Kennedy Cox 12 Somerset Academy Sky Pointe (NV) 1 20:21.7 127.9 17 5
22 Britta Johnson 9 North Tahoe (NV) 1 20:24.5 127.6 18 1
23 Niki Johnson 9 North Tahoe (NV) 2 20:25.1 127.6 19 2
24 Mackenna Calvin 10 Centennial (NV) (NV) 1 20:25.5 127.5 20 18
25 Lauren Leverty 9 Galena (NV) 4 20:30.7 127.0 21 19
26 Gabriella Martinez 10 Bishop Gorman (NV) 1 20:30.7 127.0 22 20
27 Vera Lee 10 Coronado (NV) (NV) 1 20:34.9 126.5 23 21
28 Athena McKinney 12 Coronado (NV) (NV) 2 20:35.5 126.5 24 22
29 Brooke-Lynn Miller 9 Coronado (NV) (NV) 3 20:38.2 126.2 25 23
30 Gabriella Suszek 9 Palo Verde (NV) 2 20:40.9 125.9 26 24
31 Elliot Davidson 11 Somerset Academy Sky Pointe (NV) 2 20:43.2 125.7 27 6
32 Zoe Christensen 12 Arbor View (NV) 1 20:44.3 125.6 25
33 Kira Noble 11 Incline (NV) 1 20:44.3 125.6 28 3
34 Ella Christensen 10 Somerset Academy Sky Pointe (NV) 3 20:47.3 125.3 29 7
35 Carly Nielsen 12 Elko (NV) 2 20:50.9 124.9 30 8
36 Sidney McIntosh 10 Tahoe-Truckee (CA) 1 20:52.1 124.8 31 9
37 Brooklyn Shull 9 Bishop Manogue (NV) 2 20:52.9 124.7 26
38 Jillian Chalstrom 9 Tahoe-Truckee (CA) 2 20:53.0 124.7 32 10
39 Lilianna Haynes 10 Elko (NV) 3 20:54.4 124.5 33 11
40 Sage Serenco 10 Palo Verde (NV) 3 20:57.6 124.2 34 27
41 Kalena Steves 11 North Tahoe (NV) 3 20:58.8 124.1 35 4
42 Vanessa Lopez 12 Damonte Ranch (NV) 1 21:00.8 123.9 28
43 Noemie Guechida 12 Desert Oasis (NV) 1 21:01.3 123.8 36 1
44 Leah Okuda 11 Shadow Ridge (NV) (NV) 2 21:02.7 123.7 37 29
45 Olivia Reid 11 Bishop Manogue (NV) 3 21:04.3 123.5 30
46 Kathryn Higgins 10 Coronado (NV) (NV) 4 21:06.6 123.3 38 31
47 Alexa McAfee 12 Green Valley (NV) 1 21:07.4 123.2 32
48 Carrigan Cook 10 Bishop Gorman (NV) 2 21:11.0 122.9 39 33
49 Siena Peterson 10 Palo Verde (NV) 4 21:11.4 122.8 40 34
50 Annalina Andresen 11 Reno (NV) 3 21:13.4 122.6 41 35
51 Abigail Hemgesberg 10 Centennial (NV) (NV) 2 21:15.2 122.5 42 36
52 Bridget Chamberlain 11 Centennial (NV) (NV) 3 21:17.5 122.2 43 37
53 Lola Musgrave 12 Spanish Springs (NV) 1 21:17.7 122.2 44 38
54 Lauren Fletcher 12 Arbor View (NV) 2 21:18.5 122.1 39
55 Brianna Perchetti 11 Spring Creek (NV) 2 21:20.8 121.9 45 12
56 Sienna Maisano 10 Liberty(NV) (NV) 1 21:21.4 121.9 46 2
57 Eleanor Romeo 10 Carson (NV) 6 21:22.6 121.7 47 40
58 Ashley Cottino 10 Shadow Ridge (NV) (NV) 3 21:27.1 121.3 48 41
59 Brylin Horsley 10 Somerset Academy Sky Pointe (NV) 4 21:32.8 120.8 49 13
60 Myla Bott 12 Fernley (NV) 1 21:32.9 120.8 14
61 Alana Sangprasit 12 Coronado (NV) (NV) 5 21:33.5 120.7 50 42
62 Lucy Nord 9 Douglas (NV) 1 21:34.1 120.6 43
63 Ayla Nelson 10 Douglas (NV) 2 21:34.5 120.6 44
64 Noosa Higgins 11 South Tahoe (NV) 2 21:36.2 120.4 51 15
65 Abigail Dixon 10 Galena (NV) 5 21:38.3 120.3 52 45
66 Jada White 12 Spanish Springs (NV) 2 21:38.9 120.2 53 46
67 Brooklyn Fujino 10 Coral Academy of Science (Reno) (NV) 1 21:39.1 120.2 16
68 Indigo Walenta 10 Reed (NV) 1 21:39.4 120.1 47
69 Annalise Welker 12 Shadow Ridge (NV) (NV) 4 21:40.5 120.0 54 48
70 Saige Gregory 12 Sierra Lutheran (NV) 1 21:42.2 119.9 5
71 Betzabhe Avendano Arevalo 11 North Valleys (NV) 1 21:44.9 119.6 17
72 Madeline Labay 9 Bishop Gorman (NV) 3 21:48.2 119.3 55 49
73 Evelyn Bennett 12 South Tahoe (NV) 3 21:52.6 118.9 56 18
74 Sophia Kellogg 11 Bishop Gorman (NV) 4 21:54.9 118.7 57 50
75 Catherine Kerrigan 12 Incline (NV) 2 21:55.8 118.6 58 6
76 Vianey Toledo 10 Clark (NV) 1 21:57.0 118.5 59 3
77 Natalya Ransdell 12 Spanish Springs (NV) 3 21:58.4 118.4 60 51
78 Jane Palmer 10 Tahoe-Truckee (CA) 3 21:58.4 118.4 61 19
79 Kendra Cook 11 McQueen (NV) 1 22:02.6 118.0 52
80 Kathleen List 11 Palo Verde (NV) 5 22:03.6 117.9 62 53
81 Taylor Dickey 10 North Valleys (NV) 2 22:03.7 117.9 20
82 Audrey Graf 9 Spring Creek (NV) 3 22:03.9 117.9 63 21
83 Avery Clayson 10 Spring Creek (NV) 4 22:04.3 117.8 64 22
84 Alison Stepanek 11 Faith Lutheran (NV) 1 22:04.3 117.8 54
85 Lydia Weaver 9 Centennial (NV) (NV) 4 22:06.5 117.6 65 55
86 Ryan Youngblood 10 Spring Creek (NV) 5 22:06.6 117.6 66 23
87 London Lueck 11 Centennial (NV) (NV) 5 22:08.4 117.5 67 56
88 Amanda Narcise 11 Reed (NV) 2 22:13.1 117.1 57
89 Alyse Blanchard 12 Spanish Springs (NV) 4 22:16.0 116.8 68 58
90 Mackenzie Teel 9 Somerset Academy Sky Pointe (NV) 5 22:17.2 116.7 69 24
91 Kayden Watts 11 North Tahoe (NV) 4 22:17.9 116.6 70 7
92 Kenzie Hughes 12 Moapa Valley (NV) 1 22:19.2 116.5 71 25
93 Janelle Rivo 12 Sierra Vista(NV) (NV) 1 22:19.3 116.5 4
94 Eliza Ball 10 Reno (NV) 4 22:21.8 116.3 72 59
95 Mya Libatique 10 Desert Oasis (NV) 2 22:24.4 116.0 73 5
96 Aurora Whitney 10 Pahrump Valley (NV) 1 22:24.9 116.0 26
97 Autumn Viscardo 12 Coronado (NV) (NV) 6 22:25.1 116.0 74 60
98 Gabriella Brown 10 Reno (NV) 5 22:25.1 116.0 75 61
99 Evangeline Gladden 9 Clark (NV) 2 22:26.0 115.9 76 6
100 Zoie Starkey 9 Spring Creek (NV) 6 22:28.5 115.7 77 27
101 Arowyn Potter 11 Elko (NV) 4 22:29.3 115.6 78 28
102 Ella Hone 12 Coronado (NV) (NV) 7 22:30.4 115.5 79 62
103 Tandi Ratliff 11 Elko (NV) 5 22:31.8 115.4 80 29
104 Allison Hoffman 10 Dayton (TX) 1 22:32.3 115.4 30
105 Karyme Sanchez 11 Foothill (NV) 2 22:32.5 115.3 63
106 Niza Barton 11 Douglas (NV) 3 22:32.5 115.3 64
107 Brooke Schmitt 11 Bishop Gorman (NV) 5 22:35.3 115.1 81 65
108 Aloryn Howell 11 Spring Creek (NV) 7 22:35.4 115.1 82 31
109 Courtney Wigmore 12 Galena (NV) 6 22:35.5 115.1 83 66
110 Elvia Lozano 11 Elko (NV) 6 22:37.9 114.9 84 32
111 Kendra Solomon 9 Reno (NV) 6 22:39.8 114.7 85 67
112 Lynell Cuddy 12 Galena (NV) 7 22:40.9 114.6 86 68
113 Bailey Hollis 10 Arbor View (NV) 3 22:46.8 114.1 69
114 Kaya Siig 11 North Tahoe (NV) 5 22:46.9 114.1 87 8
115 Madeline Ream 11 Centennial (NV) (NV) 6 22:47.4 114.1 88 70
116 Lindsey Nehls 10 Centennial (NV) (NV) 7 22:47.9 114.0 89 71
117 Sydney Romeo 12 Carson (NV) 7 22:48.1 114.0 90 72
118 Aspen Stevens 9 Shadow Ridge (NV) (NV) 5 22:49.4 113.9 91 73
119 Leara Alcala 11 Silverado (NV) (NV) 1 22:50.0 113.8 92 7
120 Laila Kinnick 11 Fernley (NV) 2 22:52.6 113.6 33
121 Madisynn Irvin 10 Reno (NV) 7 22:52.9 113.6 93 74
122 Rayna McAndrews 11 North Tahoe (NV) 6 22:55.4 113.4 94 9
123 Roma Velazquez 12 Bishop Gorman (NV) 6 22:57.9 113.2 95 75
124 Jillian Petersen 11 Spanish Springs (NV) 5 23:00.2 113.0 96 76
125 Reese LeBaron 10 Rancho (NV) 1 23:00.2 113.0 97 34
126 Alexia Santaolalla 12 Spanish Springs (NV) 6 23:00.5 113.0 98 77
127 Ava Grobl 10 Desert Oasis (NV) 3 23:02.8 112.8 99 8
128 Camilla Drennen 10 Bishop Gorman (NV) 7 23:03.1 112.7 100 78
129 Tatum Warren 9 South Tahoe (NV) 4 23:03.9 112.7 101 35
130 Liberty Nehls 11 Palo Verde (NV) 6 23:07.0 112.4 102 79
131 Drew Nozawa 12 Palo Verde (NV) 7 23:07.8 112.4 103 80
132 Charlotte Gillett 12 Clark (NV) 3 23:11.1 112.1 104 9
133 Allyson Perlich 11 Bishop Manogue (NV) 3 23:11.6 112.0 81
134 Adelina LaForge 11 Incline (NV) 3 23:11.8 112.0 105 10
135 Lilliana Ochoa 11 Liberty(NV) (NV) 2 23:12.5 112.0 106 10
136 Mia Musemici 9 Desert Oasis (NV) 4 23:13.6 111.9 107 11
137 Kalia Anchors 12 Virginia City (NV) 1 23:15.8 111.7 11
138 Alexandra Pickett 10 South Tahoe (NV) 5 23:20.4 111.3 108 36
139 Adrianna Tsao 12 Desert Oasis (NV) 5 23:20.6 111.3 109 12
140 Brooklyn Harvey 12 Fernley (NV) 3 23:23.9 111.0 37
141 Janae Sanders 10 Pinecrest Academy Cadence (NV) 1 23:27.2 110.8 38
142 Luisa Frida Chapa 12 Laughlin (NV) 1 23:28.1 110.7 110 12
143 Sasha Barnes 10 Moapa Valley (NV) 2 23:35.1 110.2 111 39
144 Hope Esquer 11 Liberty(NV) (NV) 3 23:36.6 110.0 112 13
145 Maya Burkett 10 South Tahoe (NV) 6 23:38.4 109.9 113 40
146 Delaney Archer 11 Liberty(NV) (NV) 4 23:39.0 109.8 114 14
147 Olivia Nuno 10 Somerset Academy Sky Pointe (NV) 6 23:43.9 109.5 115 41
148 Jaqueline Garcia 12 Canyon Springs (CA) 1 23:48.8 109.1 15
149 Renee Kenwood 10 Silverado (NV) (NV) 2 23:55.1 108.6 116 16
150 Marion Snideman 11 North Tahoe (NV) 7 23:55.5 108.6 117 13
151 Raina Baney 12 Needles (NV) 1 23:57.7 108.4 14
152 Kandice Gladden 11 Clark (NV) 4 23:57.9 108.4 118 17
153 Kayleah Kerby 12 Shadow Ridge (NV) (NV) 6 23:59.0 108.3 119 82
154 Julia Gamboa 11 Durango (CO) 1 23:59.1 108.3 120 18
155 Kailey Fitzpatrick 12 Sierra Lutheran (NV) 2 24:03.6 107.9 15
156 Megan Cabral 11 Doral Red Rock (NV) 1 24:05.4 107.8 19
157 Lauren Janssen 10 Incline (NV) 4 24:08.0 107.6 121 16
158 Lilly Martell 10 Somerset Academy Sky Pointe (NV) 7 24:08.4 107.6 122 42
159 Ellie Lowden 9 Incline (NV) 1 24:10.7 107.4 17
160 JayAnna Rabon 9 Legacy (CO) 1 24:11.7 107.3 20
161 Katie Iniguez 10 Las Vegas (NV) 1 24:12.1 107.3 123 21
162 Clara Koch 11 Liberty(NV) (NV) 5 24:12.6 107.3 124 22
163 Alexa Magadia 11 Pinecrest Academy Cadence (NV) 2 24:15.8 107.0 43
164 Leslie Quintero 12 Laughlin (NV) 2 24:18.9 106.8 125 18
165 Camryn Lee 9 Virgin Valley (NV) 2 24:22.2 106.5 126 44
166 Kennedy Ports 12 Basic (NV) 1 24:22.4 106.5 23
167 Shim Won Nkwethat 11 Clark (NV) 5 24:24.8 106.4 127 24
168 Natalie Guerra-Zacarias 11 Valley (CA) 1 24:25.2 106.3 128 25
169 Chantal Cruz 12 Elko (NV) 7 24:26.3 106.2 129 45
170 Yamila Vega Archuleta 10 Virgin Valley (NV) 3 24:30.4 105.9 130 46
171 Melissa Wright 10 Mojave (NV) 1 24:36.0 105.5 26
172 Jalissa Oberlay 12 Desert Oasis (NV) 6 24:37.9 105.4 131 27
173 Gloriana Collier 11 Needles (NV) 2 24:40.1 105.2 19
174 Lexie Lara 12 Silverado (NV) (NV) 3 24:42.0 105.1 132 28
175 Jasmine Gamboa 11 Durango (CO) 2 24:47.1 104.7 133 29
176 Dellaneyra Cervantes 11 Rancho (NV) 2 24:51.7 104.4 134 47
177 Daylia Corrales 11 Spring Valley (SC) 1 24:56.5 104.1 30
178 Trinity Garcia-Anders 11 Fernley (NV) 4 24:56.7 104.1 48
179 Emma Craft 12 Needles (NV) 3 24:59.1 103.9 20
180 Makayla Mitchell 9 Liberty(NV) (NV) 6 25:04.6 103.5 135 31
181 Tatiana Sepulveda 9 Eldorado (NM) 1 25:04.9 103.5 32
182 Katelyn Fisk 11 Shadow Ridge (NV) (NV) 7 25:07.7 103.3 136 83
183 Sophia Gonzalez-Johnson 12 Spring Valley (SC) 2 25:08.2 103.2 33
184 Vanessa James 11 Sierra Lutheran (NV) 3 25:10.1 103.1 21
185 Beverly Potts 11 Moapa Valley (NV) 3 25:10.8 103.0 137 49
186 Sadie Rolwing 9 Green Valley Christian (NV) 1 25:21.9 102.3 22
187 Savannah Thompson 9 Pahrump Valley (NV) 2 25:22.8 102.2 50
188 Tyne Beckwith 11 Tahoe-Truckee (CA) 4 25:23.1 102.2 138 51
189 Samantha Zimmerman 11 Rancho (NV) 3 25:25.0 102.1 139 52
190 Daisy Luna 11 West Wendover (NV) 1 25:26.7 101.9 23
191 Fawn Higgins 12 Clark (NV) 6 25:30.4 101.7 140 34
192 Abby Abittan 10 Lake Mead Christian (NV) 1 25:34.7 101.4 24
193 Grace Howell 11 Liberty(NV) (NV) 7 25:34.9 101.4 141 35
194 Johana Duarte 11 Eldorado (NM) 2 25:37.0 101.3 36
195 Brooke Campion 10 Desert Oasis (NV) 7 25:40.8 101.0 142 37
196 Emmely Carranza Barboza 10 Valley (CA) 2 25:42.0 100.9 143 38
197 Lainey Lowden 11 Incline (NV) 5 25:52.1 100.3 144 25
198 Katia Gutierrez-Perez 12 Rancho (NV) 4 25:53.5 100.2 145 53
199 Julia Olguin 10 Rancho (NV) 5 25:57.1 99.9 146 54
200 Maya Manrique 12 Virginia City (NV) 2 25:59.6 99.8 26
201 Sage Oelkers 9 Tahoe-Truckee (CA) 5 26:04.6 99.5 147 55
202 Estefany Campos 11 Coral Academy of Science (Reno) (NV) 2 26:07.1 99.3 27
203 Marisol Sampedro 10 Canyon Springs (CA) 2 26:16.8 98.7 39
204 Chloe Wessel 9 Bishop Manogue (NV) 4 26:28.9 97.9 84
205 Merari Sermeno-Blanco 11 Bonanza (NV) 1 26:29.3 97.9 56
206 Isabella Lopez 11 The Meadows (NV) 1 26:30.4 97.9 28
207 Christi Kennedy 12 Sierra Lutheran (NV) 4 26:30.8 97.8 29
208 Alyssa Ramirez 10 Del Sol (NV) 1 26:35.6 97.5 40
209 Natalie Scotson 9 Rancho (NV) 6 26:40.4 97.2 148 57
210 Reyna Gomez 10 Silverado (NV) (NV) 4 26:41.4 97.2 149 41
211 Carissa Collier 12 Needles (NV) 4 26:53.5 96.4 30
212 Addilynn Sutton 9 Las Vegas (NV) 2 27:01.2 95.9 150 42
213 Madison Miller 12 Las Vegas (NV) 3 27:02.2 95.9 151 43
214 Abbygayle Brown 9 Valley (CA) 3 27:11.9 95.3 152 44
215 Victoria Cann 10 Durango (CO) 3 27:15.7 95.1 153 45
216 Alisen Dahmounie 10 Cheyenne (NV) 1 27:17.0 95.0 46
217 Amarillis Pineda 9 Bonanza (NV) 2 27:30.5 94.2 58
218 Alicia Dominguez 10 West Wendover (NV) 2 27:33.5 94.0 31
219 Jalyssa Locsin Angapak 12 Rancho (NV) 7 27:43.5 93.5 154 59
220 Emily Solis 12 Laughlin (NV) 3 27:44.8 93.4 155 32
221 Sophia Cortes-Burbano 10 Coral Academy of Science (Reno) (NV) 3 27:45.0 93.4 33
222 Victoria Morosini 12 Durango (CO) 4 27:54.7 92.8 156 47
223 Christina Pavlik 11 Legacy (CO) 2 28:09.2 92.0 48
224 Emmely Minoth 12 Valley (CA) 4 28:25.2 91.1 157 49
225 Grace Kurian 12 Clark (NV) 7 28:26.7 91.1 158 50
226 Alanie Perez-Lara 9 Silverado (NV) (NV) 5 28:29.7 90.9 159 51
227 Rachel Super 9 Adelson (NV) 1 28:29.9 90.9 34
228 Tinley Sweeney 12 South Tahoe (NV) 7 28:44.2 90.1 160 60
229 Mireya Aceves 10 Las Vegas (NV) 4 28:46.7 90.0 161 52
230 Abigail Thalman 9 Las Vegas (NV) 5 28:47.0 90.0 162 53
231 Alyssa Chowen 12 Basic (NV) 2 29:00.9 89.3 54
232 Jorja Freeman 12 Moapa Valley (NV) 4 29:07.2 88.9 163 61
233 Kately Hansen 11 Virgin Valley (NV) 4 29:25.4 88.0 164 62
234 Donna Garcia 10 Canyon Springs (CA) 3 29:26.7 87.9 55
235 Elizabeth (Eli) Correa 10 Virgin Valley (NV) 5 29:27.0 87.9 165 63
236 Vadania Keller 9 West Wendover (NV) 3 29:32.2 87.7 35
237 Lilianah Davis 10 Cheyenne (NV) 2 29:38.7 87.3 56
238 Graciella Martin 10 Tahoe-Truckee (CA) 6 29:40.5 87.2 166 64
239 Kyndall Windham 12 Durango (CO) 5 29:50.3 86.8 167 57
240 Monserratt Hernandez 11 Durango (CO) 6 29:59.7 86.3 168 58
241 Citlalli Gutierrez 12 Laughlin (NV) 4 30:22.9 85.2 169 36
242 Melissa Osorio 12 Canyon Springs (CA) 4 30:34.8 84.6 59
243 Laneice Rodgers 10 Valley (CA) 5 30:35.9 84.6 170 60
244 Presley Tanner 9 Coral Academy of Science (Reno) (NV) 4 30:50.6 83.9 37
245 Trinity Thomas 11 Las Vegas (NV) 6 31:18.6 82.6 171 61
246 Jennifer Gonzales 9 Laughlin (NV) 5 32:27.1 79.7 172 38
247 Jessa Freeman 10 Moapa Valley (NV) 5 32:48.3 78.8 173 65
248 Evan Romero 10 Laughlin (NV) 6 33:39.5 76.8 174 39
249 Jennifer Hernandez Vazquez 12 Valley (CA) 6 34:33.4 74.8 175 62
250 Kimberly Corral Damian 12 Valley (CA) 7 34:33.4 74.8 176 63